Flag for USA

Past Weather in Ogden, Utah, USA — Yesterday and Last 2 Weeks

Now
69 °F

Clear.


Feels Like: 69 °F
Forecast: 96 / 67 °F
Wind: 6 mph from West

Location: Ogden-Hinckley Airport

Current Time: Jul 11, 2020 at 2:25:28 am

Latest Report: Jul 11, 2020 at 1:53 am


Visibility: 10 mi

Pressure: 29.96 "Hg (25.73 "Hg at 1310m altitude)

Humidity: 32%

Dew Point: 38 °F

Location of OgdenLocation

Past Weather in Ogden — Graph

°F

Ogden Temperature Yesterday

Maximum temperature yesterday: 92 °F (at 2:53 pm)
Minimum temperature yesterday: 65 °F (at 5:53 am)
Average temperature yesterday: 80 °F

High & Low Weather Summary for the Past Weeks

 TemperatureHumidityPressure
High96 °F (Jul 6, 5:53 pm)86% (Jun 29, 1:53 am)30.15 "Hg (Jun 29, 1:53 am)
Low46 °F (Jun 29, 1:53 am)6% (Jul 10, 3:53 pm)29.23 "Hg (Jun 28, 3:53 pm)
Average74 °F32%29.80 "Hg
* Reported Jun 26 12:53 am — Jul 11 12:53 am, Ogden. Weather by CustomWeather, © 2020

Note: Actual official high and low records may vary slightly from our data, if they occured in-between our weather recording intervals... More about our weather records

Ogden Weather History for the Previous 24 Hours

Scroll right to see more
 ConditionsComfort  
Time TempWeatherWind HumidityBarometerVisibility
12:53 am
Sat, Jul 11
74 °FClear.7 mph23%29.96 "Hg10 mi
11:53 pm
Fri, Jul 10
75 °FClear.7 mph22%29.95 "Hg10 mi
10:53 pm77 °FClear.6 mph21%29.95 "Hg10 mi
9:53 pm79 °FClear.3 mph21%29.95 "Hg10 mi
8:53 pm87 °FSunny.5 mph14%29.94 "Hg10 mi
7:53 pm92 °FSunny.5 mph7%29.95 "Hg10 mi
6:53 pm92 °FSunny.6 mph6%29.97 "Hg10 mi
5:53 pm92 °FSunny.3 mph6%29.98 "Hg10 mi
4:53 pm92 °FSunny.3 mph7%29.99 "Hg10 mi
3:53 pm91 °FSunny.9 mph6%30.00 "Hg10 mi
2:53 pm92 °FSunny.7 mph9%29.99 "Hg10 mi
1:53 pm91 °FSunny.6 mph9%29.99 "Hg10 mi
12:53 pm89 °FSunny.6 mph10%29.99 "Hg10 mi
11:53 am87 °FSunny.8 mph16%29.99 "Hg10 mi
10:53 am86 °FSunny.8 mph14%29.98 "Hg10 mi
9:53 am82 °FSunny.8 mph16%29.96 "Hg10 mi
9:35 am80 °FSunny.9 mph17%30.15 "Hg10 mi
9:20 am78 °FSunny.10 mph19%30.15 "Hg1 mi
8:53 am75 °FSunny.10 mph21%29.95 "Hg10 mi
7:53 am69 °FSunny.14 mph26%29.91 "Hg10 mi
6:53 am65 °FSunny.14 mph29%29.89 "Hg10 mi
5:53 am65 °FClear.12 mph28%29.86 "Hg10 mi
4:53 am67 °FClear.13 mph25%29.82 "Hg10 mi
3:53 am68 °FClear.13 mph25%29.79 "Hg10 mi
2:53 am69 °FClear.10 mph25%29.78 "Hg10 mi
Weather by CustomWeather, © 2020

See weather overview